"Period start","avg(HW err(1)/warn(2) (#))","avg(Visibility (m))","avg(Weather code (#))","avg(Precip intensity (mm/h))","min(HW err(1)/warn(2) (#))","max(HW err(1)/warn(2) (#))","std(HW err(1)/warn(2) (#))","med(HW err(1)/warn(2) (#))","min(Visibility (m))","max(Visibility (m))","std(Visibility (m))","med(Visibility (m))","min(Weather code (#))","max(Weather code (#))","std(Weather code (#))","med(Weather code (#))","min(Precip intensity (mm/h))","max(Precip intensity (mm/h))","std(Precip intensity (mm/h))","med(Precip intensity (mm/h))"
2014-08-19 00:00:00,0,4626,62,16.14,0,0,0,0,2846,6203,796,4750,61,63,1,62,4.85,45.50,12.26,11.25
2014-08-19 00:10:00,0,3651,62,12.87,0,0,0,0,669,5165,1321,3858,61,62,0,62,4.20,26.00,6.43,10.90
2014-08-19 00:20:00,0,3623,62,24.26,0,0,0,0,2902,3913,271,3684,62,63,0,62,12.15,42.25,9.03,22.82
2014-08-19 00:30:00,0,2641,62,16.60,0,0,0,0,1571,4176,624,2564,61,62,0,62,5.65,28.20,6.45,16.57
2014-08-19 00:40:00,0,8688,43,0.34,0,0,0,0,4654,13557,2730,8949,0,61,24,56,0.00,1.45,0.46,0.07
2014-08-19 00:50:00,0,10937,28,0.14,0,0,0,0,9218,14434,1474,10606,10,61,22,10,0.00,1.10,0.33,0.00
2014-08-19 01:00:00,0,16301,3,0.00,0,0,0,0,14312,18300,1111,16485,0,10,5,0,0.00,0.00,0.00,0.00
2014-08-19 01:10:00,0,16583,0,0.00,0,0,0,0,14628,18116,1083,16180,0,0,0,0,0.00,0.00,0.00,0.00
2014-08-19 01:20:00,0,23244,0,0.00,0,0,0,0,16717,31270,4219,22234,0,0,0,0,0.00,0.00,0.00,0.00
2014-08-19 01:30:00,0,30487,0,0.00,0,0,0,0,24716,36712,4291,30776,0,0,0,0,0.00,0.00,0.00,0.00
2014-08-19 01:40:00,0,28412,0,0.00,0,0,0,0,26027,30898,1644,28868,0,0,0,0,0.00,0.00,0.00,0.00
2014-08-19 01:50:00,0,27005,0,0.00,0,0,0,0,24468,30682,2305,25734,0,0,0,0,0.00,0.00,0.00,0.00
2014-08-19 02:00:00,0,25637,0,0.00,0,0,0,0,22901,28916,1777,25596,0,0,0,0,0.00,0.00,0.00,0.00
2014-08-19 02:10:00,0,25834,0,0.00,0,0,0,0,21829,29806,2378,25864,0,0,0,0,0.00,0.00,0.00,0.00
2014-08-19 02:20:00,0,27524,0,0.00,0,0,0,0,24297,35683,3582,25533,0,0,0,0,0.00,0.00,0.00,0.00
2014-08-19 02:30:00,0,23506,0,0.00,0,0,0,0,20869,29745,2507,23204,0,0,0,0,0.00,0.00,0.00,0.00
2014-08-19 02:40:00,0,25416,0,0.00,0,0,0,0,21404,29380,2698,24941,0,0,0,0,0.00,0.00,0.00,0.00
2014-08-19 02:50:00,0,21850,0,0.00,0,0,0,0,18097,25844,2137,21665,0,0,0,0,0.00,0.00,0.00,0.00
2014-08-19 03:00:00,0,16820,0,0.00,0,0,0,0,15007,19855,1343,16780,0,0,0,0,0.00,0.00,0.00,0.00
2014-08-19 03:10:00,0,14616,0,0.00,0,0,0,0,13625,15953,702,14525,0,0,0,0,0.00,0.00,0.00,0.00
2014-08-19 03:20:00,0,13070,0,0.00,0,0,0,0,12002,13923,511,13021,0,0,0,0,0.00,0.00,0.00,0.00
2014-08-19 03:30:00,0,12753,0,0.00,0,0,0,0,12042,13505,520,12704,0,0,0,0,0.00,0.00,0.00,0.00
2014-08-19 03:40:00,0,11048,0,0.00,0,0,0,0,9970,11688,522,11149,0,4,1,0,0.00,0.00,0.00,0.00
2014-08-19 03:50:00,0,11043,4,0.00,0,0,0,0,10518,11754,415,10984,4,4,0,4,0.00,0.00,0.00,0.00
2014-08-19 04:00:00,0,10447,4,0.00,0,0,0,0,10088,11022,240,10382,4,4,0,4,0.00,0.00,0.00,0.00
2014-08-19 04:10:00,0,10415,4,0.00,0,0,0,0,9865,10867,298,10336,4,4,0,4,0.00,0.00,0.00,0.00
2014-08-19 04:20:00,0,10804,4,0.00,0,0,0,0,10105,11333,374,10770,4,4,0,4,0.00,0.00,0.00,0.00
2014-08-19 04:30:00,0,10976,4,0.00,0,0,0,0,10177,11449,404,11036,4,4,0,4,0.00,0.00,0.00,0.00
2014-08-19 04:40:00,0,12155,2,0.00,0,0,0,0,11705,12737,342,12188,0,4,2,2,0.00,0.00,0.00,0.00
2014-08-19 04:50:00,0,12217,0,0.00,0,0,0,0,11215,13238,636,12307,0,0,0,0,0.00,0.00,0.00,0.00
2014-08-19 05:00:00,0,12813,0,0.00,0,0,0,0,12119,13535,488,12704,0,0,0,0,0.00,0.00,0.00,0.00
2014-08-19 05:10:00,0,12375,0,0.00,0,0,0,0,11217,13024,516,12526,0,0,0,0,0.00,0.00,0.00,0.00
2014-08-19 05:20:00,0,12925,0,0.00,0,0,0,0,11677,14195,777,12917,0,0,0,0,0.00,0.00,0.00,0.00
2014-08-19 05:30:00,0,13279,0,0.00,0,0,0,0,12409,14614,632,13231,0,0,0,0,0.00,0.00,0.00,0.00
2014-08-19 05:40:00,0,12970,0,0.00,0,0,0,0,11677,14547,798,12942,0,0,0,0,0.00,0.00,0.00,0.00
2014-08-19 05:50:00,0,13348,0,0.00,0,0,0,0,12539,14179,543,13350,0,0,0,0,0.00,0.00,0.00,0.00
2014-08-19 06:00:00,0,13866,0,0.00,0,0,0,0,11861,18431,1792,13376,0,0,0,0,0.00,0.00,0.00,0.00
2014-08-19 06:10:00,0,13716,0,0.00,0,0,0,0,12406,14911,866,13655,0,0,0,0,0.00,0.00,0.00,0.00
2014-08-19 06:20:00,0,15895,0,0.00,0,0,0,0,12827,18172,1410,16038,0,0,0,0,0.00,0.00,0.00,0.00
2014-08-19 06:30:00,0,15123,0,0.00,0,0,0,0,13386,19496,1951,13932,0,0,0,0,0.00,0.00,0.00,0.00
2014-08-19 06:40:00,0,18001,0,0.00,0,0,0,0,14345,21395,2098,17566,0,0,0,0,0.00,0.00,0.00,0.00
2014-08-19 06:50:00,0,16180,0,0.00,0,0,0,0,14399,19728,1466,15852,0,0,0,0,0.00,0.00,0.00,0.00
2014-08-19 07:00:00,0,18471,0,0.00,0,0,0,0,15381,20524,1537,18884,0,0,0,0,0.00,0.00,0.00,0.00
2014-08-19 07:10:00,0,17432,0,0.00,0,0,0,0,15905,21308,1474,17121,0,0,0,0,0.00,0.00,0.00,0.00
2014-08-19 07:20:00,0,20153,0,0.00,0,0,0,0,17405,24909,1874,19720,0,0,0,0,0.00,0.00,0.00,0.00
2014-08-19 07:30:00,0,19283,0,0.00,0,0,0,0,16651,23644,2253,18927,0,0,0,0,0.00,0.00,0.00,0.00
2014-08-19 07:40:00,0,19350,0,0.00,0,0,0,0,17528,22035,1381,19338,0,0,0,0,0.00,0.00,0.00,0.00
2014-08-19 07:50:00,0,17174,0,0.00,0,0,0,0,16079,18332,687,16954,0,0,0,0,0.00,0.00,0.00,0.00
2014-08-19 08:00:00,0,19382,0,0.00,0,0,0,0,17841,22156,1388,19250,0,0,0,0,0.00,0.00,0.00,0.00
2014-08-19 08:10:00,0,21172,0,0.00,0,0,0,0,18584,24008,1601,20560,0,0,0,0,0.00,0.00,0.00,0.00
2014-08-19 08:20:00,0,22889,0,0.00,0,0,0,0,19729,25728,1628,22915,0,0,0,0,0.00,0.00,0.00,0.00
2014-08-19 08:30:00,0,21553,0,0.00,0,0,0,0,17232,27036,2791,22549,0,0,0,0,0.00,0.00,0.00,0.00
2014-08-19 08:40:00,0,26208,0,0.00,0,0,0,0,21147,33160,3581,25690,0,0,0,0,0.00,0.00,0.00,0.00
2014-08-19 08:50:00,0,25055,0,0.00,0,0,0,0,21170,29390,2641,25212,0,0,0,0,0.00,0.00,0.00,0.00
2014-08-19 09:00:00,0,25442,0,0.00,0,0,0,0,22764,30874,2365,24584,0,0,0,0,0.00,0.00,0.00,0.00
2014-08-19 09:10:00,0,25063,0,0.00,0,0,0,0,22874,27054,1366,25496,0,0,0,0,0.00,0.00,0.00,0.00
2014-08-19 09:20:00,0,26277,0,0.00,0,0,0,0,21839,30680,2765,27375,0,0,0,0,0.00,0.00,0.00,0.00
2014-08-19 09:30:00,0,29429,0,0.00,0,0,0,0,24667,38774,4036,28063,0,0,0,0,0.00,0.00,0.00,0.00
2014-08-19 09:40:00,0,24095,0,0.00,0,0,0,0,19943,31145,3579,23662,0,0,0,0,0.00,0.00,0.00,0.00
2014-08-19 09:50:00,0,30119,0,0.00,0,0,0,0,19738,38042,6134,30926,0,0,0,0,0.00,0.00,0.00,0.00
2014-08-19 10:00:00,0,24442,0,0.00,0,0,0,0,21043,28955,2443,24354,0,0,0,0,0.00,0.00,0.00,0.00
2014-08-19 10:10:00,0,24097,0,0.00,0,0,0,0,10459,35977,7358,22639,0,0,0,0,0.00,0.00,0.00,0.00
2014-08-19 10:20:00,0,20617,0,0.00,0,0,0,0,16745,23789,2330,21205,0,0,0,0,0.00,0.00,0.00,0.00
2014-08-19 10:30:00,0,27204,0,0.00,0,0,0,0,20464,38750,5925,24891,0,0,0,0,0.00,0.00,0.00,0.00
2014-08-19 10:40:00,0,24134,0,0.00,0,0,0,0,21004,28177,2463,24235,0,0,0,0,0.00,0.00,0.00,0.00
2014-08-19 10:50:00,0,25133,0,0.00,0,0,0,0,20448,33736,3723,24878,0,0,0,0,0.00,0.00,0.00,0.00
2014-08-19 11:00:00,0,21804,0,0.00,0,0,0,0,18255,24695,1789,21573,0,0,0,0,0.00,0.00,0.00,0.00
2014-08-19 11:10:00,0,20622,0,0.00,0,0,0,0,19134,23576,1293,20500,0,0,0,0,0.00,0.00,0.00,0.00
2014-08-19 11:20:00,0,20161,0,0.00,0,0,0,0,17116,24431,2199,19678,0,0,0,0,0.00,0.00,0.00,0.00
2014-08-19 11:30:00,0,19728,0,0.00,0,0,0,0,18364,20734,700,19710,0,0,0,0,0.00,0.00,0.00,0.00
2014-08-19 11:40:00,0,19080,0,0.00,0,0,0,0,16455,21623,1496,19324,0,0,0,0,0.00,0.00,0.00,0.00
2014-08-19 11:50:00,0,19505,0,0.00,0,0,0,0,17541,21389,1368,19608,0,0,0,0,0.00,0.00,0.00,0.00
2014-08-19 12:00:00,0,18598,0,0.00,0,0,0,0,16611,20355,980,18634,0,0,0,0,0.00,0.00,0.00,0.00
2014-08-19 12:10:00,0,17521,0,0.00,0,0,0,0,15493,19241,1090,17706,0,0,0,0,0.00,0.00,0.00,0.00
2014-08-19 12:20:00,0,16694,0,0.00,0,0,0,0,15396,18603,1179,16024,0,0,0,0,0.00,0.00,0.00,0.00
2014-08-19 12:30:00,0,16045,0,0.00,0,0,0,0,14785,17591,865,15950,0,0,0,0,0.00,0.00,0.00,0.00
2014-08-19 12:40:00,0,14904,0,0.00,0,0,0,0,14201,15841,560,14682,0,0,0,0,0.00,0.00,0.00,0.00
2014-08-19 12:50:00,0,16443,0,0.00,0,0,0,0,14805,17383,883,16678,0,0,0,0,0.00,0.00,0.00,0.00
2014-08-19 13:00:00,0,15898,0,0.00,0,0,0,0,14477,17412,835,15695,0,0,0,0,0.00,0.00,0.00,0.00
2014-08-19 13:10:00,0,14986,0,0.00,0,0,0,0,14198,15654,474,14984,0,0,0,0,0.00,0.00,0.00,0.00
2014-08-19 13:20:00,0,14513,0,0.00,0,0,0,0,13713,15467,519,14410,0,0,0,0,0.00,0.00,0.00,0.00
2014-08-19 13:30:00,0,16458,0,0.00,0,0,0,0,14934,18067,853,16450,0,0,0,0,0.00,0.00,0.00,0.00
2014-08-19 13:40:00,0,17047,0,0.00,0,0,0,0,14294,18638,1066,17209,0,0,0,0,0.00,0.00,0.00,0.00
2014-08-19 13:50:00,0,15786,0,0.00,0,0,0,0,13988,17171,890,15985,0,0,0,0,0.00,0.00,0.00,0.00
2014-08-19 14:00:00,0,14386,0,0.00,0,0,0,0,13068,16530,1007,14117,0,0,0,0,0.00,0.00,0.00,0.00
2014-08-19 14:10:00,0,15732,0,0.00,0,0,0,0,13333,17851,1217,16026,0,0,0,0,0.00,0.00,0.00,0.00
2014-08-19 14:20:00,0,15733,0,0.00,0,0,0,0,14246,17872,1121,15648,0,0,0,0,0.00,0.00,0.00,0.00
2014-08-19 14:30:00,0,14238,0,0.00,0,0,0,0,12330,16512,1721,13478,0,0,0,0,0.00,0.00,0.00,0.00
2014-08-19 14:40:00,0,14195,0,0.00,0,0,0,0,12989,15746,835,13922,0,0,0,0,0.00,0.00,0.00,0.00
2014-08-19 14:50:00,0,18228,0,0.00,0,0,0,0,16939,19042,573,18246,0,0,0,0,0.00,0.00,0.00,0.00
2014-08-19 15:00:00,0,19770,0,0.00,0,0,0,0,17197,22373,1499,19654,0,0,0,0,0.00,0.00,0.00,0.00
2014-08-19 15:10:00,0,20233,0,0.00,0,0,0,0,17416,24218,2024,20176,0,0,0,0,0.00,0.00,0.00,0.00
2014-08-19 15:20:00,0,20698,0,0.00,0,0,0,0,17731,22647,1474,20894,0,0,0,0,0.00,0.00,0.00,0.00
2014-08-19 15:30:00,0,21215,0,0.00,0,0,0,0,19930,22419,821,21320,0,0,0,0,0.00,0.00,0.00,0.00
2014-08-19 15:40:00,0,20501,0,0.00,0,0,0,0,18874,23113,1138,20586,0,0,0,0,0.00,0.00,0.00,0.00
2014-08-19 15:50:00,0,20438,0,0.00,0,0,0,0,19755,21676,625,20174,0,0,0,0,0.00,0.00,0.00,0.00
2014-08-19 16:00:00,0,19673,0,0.00,0,0,0,0,18294,20897,797,19634,0,0,0,0,0.00,0.00,0.00,0.00
2014-08-19 16:10:00,0,19294,0,0.00,0,0,0,0,16434,22155,1435,19052,0,0,0,0,0.00,0.00,0.00,0.00
2014-08-19 16:20:00,0,18472,0,0.00,0,0,0,0,15958,21219,1432,18570,0,0,0,0,0.00,0.00,0.00,0.00
2014-08-19 16:30:00,0,16328,0,0.00,0,0,0,0,14281,18104,1192,16474,0,0,0,0,0.00,0.00,0.00,0.00
2014-08-19 16:40:00,0,15195,0,0.00,0,0,0,0,14424,16330,490,15210,0,0,0,0,0.00,0.00,0.00,0.00
2014-08-19 16:50:00,0,14498,0,0.00,0,0,0,0,13513,15840,728,14535,0,0,0,0,0.00,0.00,0.00,0.00
2014-08-19 17:00:00,0,13940,0,0.00,0,0,0,0,12586,14648,594,14154,0,0,0,0,0.00,0.00,0.00,0.00
2014-08-19 17:10:00,0,14396,0,0.00,0,0,0,0,13463,16281,798,14077,0,0,0,0,0.00,0.00,0.00,0.00
2014-08-19 17:20:00,0,13453,0,0.00,0,0,0,0,11980,15562,1128,13306,0,0,0,0,0.00,0.00,0.00,0.00
2014-08-19 17:30:00,0,12204,0,0.00,0,0,0,0,11058,12755,543,12373,0,0,0,0,0.00,0.00,0.00,0.00
2014-08-19 17:40:00,0,11026,0,0.00,0,0,0,0,10193,11611,373,11043,0,0,0,0,0.00,0.00,0.00,0.00
2014-08-19 17:50:00,0,9305,0,0.00,0,0,0,0,8473,10191,508,9193,0,0,0,0,0.00,0.00,0.00,0.00
2014-08-19 18:00:00,0,9583,0,0.00,0,0,0,0,9364,9778,140,9622,0,0,0,0,0.00,0.00,0.00,0.00
2014-08-19 18:10:00,0,8962,1,0.00,0,0,0,0,8437,9550,344,8917,0,10,3,0,0.00,0.00,0.00,0.00
2014-08-19 18:20:00,0,8813,10,0.00,0,0,0,0,8461,9328,296,8814,10,10,0,10,0.00,0.00,0.00,0.00
2014-08-19 18:30:00,0,8652,10,0.00,0,0,0,0,8394,9025,206,8657,10,10,0,10,0.00,0.00,0.00,0.00
2014-08-19 18:40:00,0,7961,10,0.00,0,0,0,0,7163,8468,400,7976,10,10,0,10,0.00,0.00,0.00,0.00
2014-08-19 18:50:00,0,7564,10,0.00,0,0,0,0,6885,7940,255,7598,10,10,0,10,0.00,0.00,0.00,0.00
2014-08-19 19:00:00,0,7568,10,0.00,0,0,0,0,7316,7774,147,7572,10,10,0,10,0.00,0.00,0.00,0.00
2014-08-19 19:10:00,0,6801,10,0.00,0,0,0,0,5704,7566,698,7067,10,10,0,10,0.00,0.00,0.00,0.00
2014-08-19 19:20:00,0,5972,10,0.00,0,0,0,0,5579,6285,238,5999,10,10,0,10,0.00,0.00,0.00,0.00
2014-08-19 19:30:00,0,6854,10,0.00,0,0,0,0,6575,7055,144,6881,10,10,0,10,0.00,0.00,0.00,0.00
2014-08-19 19:40:00,0,6547,10,0.00,0,0,0,0,6337,6845,156,6532,10,10,0,10,0.00,0.00,0.00,0.00
2014-08-19 19:50:00,0,7150,10,0.00,0,0,0,0,6962,7618,189,7108,10,10,0,10,0.00,0.00,0.00,0.00
2014-08-19 20:00:00,0,7044,10,0.00,0,0,0,0,6703,7291,149,7064,10,10,0,10,0.00,0.00,0.00,0.00
2014-08-19 20:10:00,0,6300,10,0.00,0,0,0,0,5665,6601,297,6432,10,10,0,10,0.00,0.00,0.00,0.00
2014-08-19 20:20:00,0,6599,10,0.00,0,0,0,0,6471,6794,111,6564,10,10,0,10,0.00,0.00,0.00,0.00
2014-08-19 20:30:00,0,6385,10,0.00,0,0,0,0,6039,6693,189,6358,10,10,0,10,0.00,0.00,0.00,0.00
2014-08-19 20:40:00,0,6136,10,0.00,0,0,0,0,6001,6378,105,6114,10,10,0,10,0.00,0.00,0.00,0.00
2014-08-19 20:50:00,0,6027,10,0.00,0,0,0,0,5892,6177,94,6006,10,10,0,10,0.00,0.00,0.00,0.00
2014-08-19 21:00:00,0,5679,10,0.00,0,0,0,0,5506,5858,104,5652,10,10,0,10,0.00,0.00,0.00,0.00
2014-08-19 21:10:00,0,5435,10,0.00,0,0,0,0,5235,5572,104,5468,10,10,0,10,0.00,0.00,0.00,0.00
2014-08-19 21:20:00,0,5978,10,0.00,0,0,0,0,5775,6261,127,5978,10,10,0,10,0.00,0.00,0.00,0.00
2014-08-19 21:30:00,0,6060,10,0.00,0,0,0,0,5689,6327,190,6122,10,10,0,10,0.00,0.00,0.00,0.00
2014-08-19 21:40:00,0,6235,10,0.00,0,0,0,0,5966,6433,118,6248,10,10,0,10,0.00,0.00,0.00,0.00
2014-08-19 21:50:00,0,6390,10,0.00,0,0,0,0,6206,6668,145,6371,10,10,0,10,0.00,0.00,0.00,0.00
2014-08-19 22:00:00,0,6369,4,0.00,0,0,0,0,6176,6482,96,6368,4,4,0,4,0.00,0.00,0.00,0.00
2014-08-19 22:10:00,0,6488,4,0.00,0,0,0,0,6335,6734,145,6436,4,4,0,4,0.00,0.00,0.00,0.00
2014-08-19 22:20:00,0,6440,4,0.00,0,0,0,0,6236,6698,136,6422,4,4,0,4,0.00,0.00,0.00,0.00
2014-08-19 22:30:00,0,6610,4,0.00,0,0,0,0,6477,6758,79,6630,4,4,0,4,0.00,0.00,0.00,0.00
2014-08-19 22:40:00,0,6770,4,0.00,0,0,0,0,6536,7066,137,6758,4,4,0,4,0.00,0.00,0.00,0.00
2014-08-19 22:50:00,0,6879,4,0.00,0,0,0,0,6636,7019,138,6935,4,4,0,4,0.00,0.00,0.00,0.00
2014-08-19 23:00:00,0,7014,4,0.00,0,0,0,0,6903,7195,90,6984,4,4,0,4,0.00,0.00,0.00,0.00
2014-08-19 23:10:00,0,6944,4,0.00,0,0,0,0,6622,7222,150,6940,4,4,0,4,0.00,0.00,0.00,0.00
2014-08-19 23:20:00,0,7044,4,0.00,0,0,0,0,6848,7178,108,7076,4,4,0,4,0.00,0.00,0.00,0.00
2014-08-19 23:30:00,0,7126,4,0.00,0,0,0,0,6952,7536,162,7102,4,4,0,4,0.00,0.00,0.00,0.00
2014-08-19 23:40:00,0,7092,4,0.00,0,0,0,0,6971,7216,66,7088,4,4,0,4,0.00,0.00,0.00,0.00
2014-08-19 23:50:00,0,7084,4,0.00,0,0,0,0,6842,7379,155,7064,4,4,0,4,0.00,0.00,0.00,0.00
